Regional Weather Roundup
Issued by NWS

Home | Current Version | Previous Version | Text Only | Print | Product List | Glossary On
Versions: 1 2 3 4 5 6 7 8 9 10 11 12 13 14 15 16 17 18 19 20 21 22 23 24 25 26 27
000
ASUS44 KBMX 261410
RWRAL

ALABAMA REGIONAL WEATHER ROUNDUP
NATIONAL WEATHER SERVICE BIRMINGHAM AL
900 AM CDT SAT MAY 26 2018

NOTE: "FAIR" INDICATES FEW OR NO CLOUDS BELOW 12,000 FEET
WITH NO SIGNIFICANT WEATHER AND/OR OBSTRUCTIONS TO VISIBILITY.

THE REMARK "TC" DENOTES TEMPERATURE IN DEGREES CELSIUS.

ALZ001>011-014-016>018-020-261500-
NORTH ALABAMA

CITY           SKY/WX    TMP DP  RH WIND       PRES   REMARKS
MUSCLE SHOALS  CLOUDY    72  68  87 S6        29.96S
HUNTSVILLE     CLOUDY    73  70  90 SW6       29.96S
DECATUR        CLOUDY    73  69  87 SW6       29.96S
HALEYVILLE       N/A    N/A N/A N/A MISG        N/A
GADSDEN        CLOUDY    73  71  93 CALM      29.98R
$$

ALZ012-013-022-023-030>036-040>044-261500-
WEST CENTRAL ALABAMA

CITY           SKY/WX    TMP DP  RH WIND       PRES   REMARKS
TUSCALOOSA     PTSUNNY   74  69  85 CALM      29.96R
DEMOPOLIS      PTSUNNY   74  69  86 CALM      29.96R
$$

ALZ015-024>026-033>036-041>044-261500-
CENTRAL ALABAMA

CITY           SKY/WX    TMP DP  RH WIND       PRES   REMARKS
BIRMINGHAM     CLOUDY    71  68  90 CALM      30.00R
MONTGOMERY     FAIR      78  72  81 W3        29.97R
SHELBY CO ARPT CLOUDY    74  69  85 SE6       29.98R
MAXWELL AFB    CLOUDY    75  72  88 N5        29.96R
GREENVILLE     FAIR      77  70  79 VRB3      29.96R
SELMA          FAIR      73  70  88 CALM      29.96R
PRATTVILLE     CLOUDY    72  71  99 CALM      29.96S
BESSEMER       CLOUDY    71  70  96 CALM      29.99R
TALLADEGA      CLOUDY    74  71  90 S3        29.99R
PELL CITY      CLOUDY    73  73 100 CALM      29.99R
MARION         PTSUNNY   72  72  99 SW6       29.96R
SYLACAUGA      CLOUDY    73  73 100 SW3       30.00R
$$

ALZ019-021-028-029-037-038-045>048-261500-
EAST CENTRAL ALABAMA

CITY           SKY/WX    TMP DP  RH WIND       PRES   REMARKS
ANNISTON       PTSUNNY   74  69  85 CALM      29.99R
ALEXANDER CITY CLOUDY    71  71 100 CALM      29.99S
AUBURN         FAIR      73  70  90 VRB3      30.00S
$$

ALZ051>064-261500-
SOUTHWEST ALABAMA

CITY           SKY/WX    TMP DP  RH WIND       PRES   REMARKS
MOBILE         PTSUNNY   80  72  76 VRB3      29.94S
BROOKLEY FIELD FAIR      80  74  81 NE7       29.94S
EVERGREEN      FAIR      75  71  87 SE3       29.97R
$$

ALZ049-050-065>069-261500-
SOUTHEAST ALABAMA

CITY           SKY/WX    TMP DP  RH WIND       PRES   REMARKS
DOTHAN         FAIR      80  71  74 VRB5      30.00R
OZARK          CLOUDY    75  75 100 CALM      29.96S
TROY           FAIR      77  69  76 CALM      29.97S
EUFAULA        FAIR      81  73  76 CALM      29.96R
$$




USA.gov is the U.S. government's official web portal to all federal, state and local government web resources and services.